contact:dominique.lefevre@mio.osupytheas.fr, maurice.libes@osupytheas.fr, didier.mallarino@osupytheas.fr
Project:EMSO http://www.emso-fr.org/EMSO-France
Depth: 2436.0 m
Title:EMSO Ligure Ouest : Data MII capteur AQUADOPP
Date,Latitude,Longitude,X_East,Y_North,Z_Up,Amplitude_X,Amplitude_Y,Amplitude_Z,Batterie,SoundSpeed,Heading,Pitch,Roll,Pressure,TIS,Speed,Direction
, degrees North, degrees East, m.s-1, m.s-1,m.s-1, 1, 1, 1, Volt, m.s-1, degree, degree, degree, dbar, degree_C, m.s-1, degree
2019-10-03T00:04:03,42.805,6.029,0.011,0.012,-0.034,101.0,102.0,99.0,13.4,1505.1,327.0,-0.8,1.8,2470.54,13.27,0.016,42.5
2019-10-03T00:07:04,42.805,6.029,0.038,-0.016,-0.027,101.0,105.0,98.0,13.4,1505.2,327.0,-0.8,1.8,2470.378,13.29,0.041,112.8
2019-10-03T00:10:05,42.805,6.029,0.006,-0.004,-0.06,102.0,103.0,99.0,13.4,1505.2,327.5,-0.7,1.8,2470.155,13.3,0.007,123.7
2019-10-03T00:13:06,42.805,6.029,0.032,-0.019,-0.033,102.0,102.0,99.0,13.3,1505.3,324.6,-0.7,1.9,2470.05,13.31,0.037,120.7
2019-10-03T00:16:07,42.805,6.029,-0.013,-0.006,-0.016,99.0,103.0,98.0,13.4,1505.3,327.1,-0.7,1.8,2469.96,13.31,0.014,245.2
2019-10-03T00:19:08,42.805,6.029,0.009,-0.012,-0.03,101.0,103.0,98.0,13.4,1505.3,324.7,-0.7,1.9,2469.895,13.32,0.015,143.1
2019-10-03T00:22:09,42.805,6.029,0.034,-0.012,-0.019,101.0,104.0,99.0,13.4,1505.3,324.7,-0.7,1.8,2469.902,13.32,0.036,109.4
2019-10-03T00:25:10,42.805,6.029,0.017,-0.001,-0.037,100.0,103.0,98.0,13.3,1505.3,324.0,-0.7,1.9,2469.851,13.32,0.017,93.4
2019-10-03T00:28:11,42.805,6.029,0.024,-0.008,-0.059,101.0,102.0,98.0,13.3,1505.3,326.5,-0.7,1.8,2469.844,13.32,0.025,108.4
2019-10-03T00:31:12,42.805,6.029,0.03,-0.02,-0.02,100.0,103.0,100.0,13.4,1505.3,327.4,-0.8,1.8,2469.844,13.32,0.036,123.7
2019-10-03T00:34:13,42.805,6.029,0.032,-0.017,-0.021,102.0,102.0,99.0,13.4,1505.3,323.3,-0.7,1.8,2469.769,13.32,0.036,118.0
2019-10-03T00:37:14,42.805,6.029,0.014,-0.027,-0.013,100.0,103.0,99.0,13.3,1505.3,324.8,-0.7,1.8,2469.801,13.32,0.03,152.6
2019-10-03T00:40:15,42.805,6.029,0.041,-0.02,-0.03,99.0,105.0,98.0,13.4,1505.3,324.5,-0.7,1.8,2469.821,13.32,0.045,116.0
2019-10-03T00:43:16,42.805,6.029,0.027,-0.019,-0.028,100.0,104.0,98.0,13.4,1505.3,324.6,-0.7,1.8,2469.852,13.32,0.033,125.1
2019-10-03T00:46:17,42.805,6.029,0.014,-0.001,-0.04,101.0,103.0,98.0,13.4,1505.3,324.8,-0.7,1.8,2469.841,13.32,0.014,94.1
2019-10-03T00:49:18,42.805,6.029,0.013,0.003,-0.017,101.0,103.0,99.0,13.4,1505.3,327.2,-0.7,1.8,2469.814,13.32,0.013,77.0
2019-10-03T00:52:19,42.805,6.029,0.023,0.006,-0.002,100.0,103.0,98.0,13.3,1505.3,327.7,-0.7,1.9,2469.81,13.32,0.023,75.4
2019-10-03T00:55:20,42.805,6.029,0.01,-0.02,-0.05,101.0,102.0,99.0,13.4,1505.3,323.8,-0.7,1.8,2469.826,13.33,0.022,153.4
2019-10-03T00:58:21,42.805,6.029,0.002,-0.013,-0.03,101.0,103.0,98.0,13.3,1505.3,328.2,-0.7,1.8,2469.841,13.33,0.013,171.3
2019-10-03T01:01:22,42.805,6.029,0.016,-0.008,-0.003,100.0,101.0,99.0,13.3,1505.3,326.2,-0.7,1.8,2469.851,13.33,0.017,116.6
2019-10-03T01:04:23,42.805,6.029,0.021,-0.017,-0.007,99.0,103.0,97.0,13.3,1505.3,325.1,-0.7,1.8,2469.879,13.33,0.027,129.0
2019-10-03T01:07:24,42.805,6.029,0.026,-0.009,-0.034,100.0,102.0,98.0,13.4,1505.3,323.9,-0.7,1.8,2469.851,13.33,0.027,109.1
2019-10-03T01:10:25,42.805,6.029,0.031,-0.013,-0.023,99.0,102.0,98.0,13.4,1505.3,324.4,-0.7,1.8,2469.871,13.33,0.033,112.7
2019-10-03T01:13:26,42.805,6.029,0.039,-0.041,-0.036,101.0,102.0,98.0,13.4,1505.3,323.3,-0.7,1.9,2469.834,13.33,0.056,136.4
2019-10-03T01:16:27,42.805,6.029,0.008,0.006,0.002,100.0,103.0,98.0,13.3,1505.3,326.8,-0.7,1.8,2469.85,13.33,0.01,53.1
2019-10-03T01:19:28,42.805,6.029,0.057,-0.008,0.0,100.0,102.0,98.0,13.4,1505.3,325.9,-0.7,1.8,2469.863,13.33,0.057,98.0
2019-10-03T01:22:29,42.805,6.029,0.025,-0.011,-0.038,101.0,102.0,99.0,13.3,1505.3,326.2,-0.7,1.8,2469.853,13.33,0.027,113.7
2019-10-03T01:25:30,42.805,6.029,0.028,0.0,-0.016,101.0,102.0,97.0,13.4,1505.3,327.3,-0.8,1.8,2469.884,13.33,0.028,90.0
2019-10-03T01:28:31,42.805,6.029,0.055,-0.03,0.01,100.0,105.0,97.0,13.3,1505.3,328.4,-0.7,1.8,2469.923,13.33,0.062,118.6
2019-10-03T01:31:32,42.805,6.029,0.045,-0.002,-0.021,98.0,104.0,100.0,13.3,1505.3,326.0,-0.7,1.8,2469.887,13.33,0.045,92.5
2019-10-03T01:34:33,42.805,6.029,0.046,-0.013,0.009,101.0,103.0,97.0,13.4,1505.3,324.6,-0.7,1.8,2469.882,13.33,0.047,105.8
2019-10-03T01:37:34,42.805,6.029,0.051,-0.001,-0.011,100.0,105.0,98.0,13.3,1505.3,328.3,-0.7,1.8,2469.884,13.33,0.051,91.1
2019-10-03T01:40:35,42.805,6.029,-0.008,-0.019,-0.02,101.0,103.0,99.0,13.4,1505.3,326.1,-0.7,1.8,2469.889,13.33,0.02,202.8
2019-10-03T01:43:36,42.805,6.029,0.057,-0.011,0.003,100.0,104.0,97.0,13.4,1505.3,327.9,-0.8,1.8,2469.867,13.33,0.058,100.9
2019-10-03T01:46:37,42.805,6.029,0.065,-0.038,0.023,99.0,104.0,99.0,13.3,1505.3,324.6,-0.7,1.9,2469.878,13.33,0.075,120.3
2019-10-03T01:49:38,42.805,6.029,0.028,-0.017,0.017,102.0,103.0,98.0,13.3,1505.3,326.3,-0.7,1.8,2469.858,13.33,0.032,121.3
2019-10-03T01:52:39,42.805,6.029,0.032,-0.025,-0.015,100.0,103.0,98.0,13.4,1505.3,323.1,-0.7,1.8,2469.856,13.33,0.04,128.0
2019-10-03T01:55:40,42.805,6.029,0.0,-0.021,-0.048,103.0,105.0,97.0,13.3,1505.3,325.1,-0.7,1.8,2469.889,13.33,0.021,180.0
2019-10-03T01:58:41,42.805,6.029,0.043,0.001,-0.007,101.0,103.0,98.0,13.4,1505.3,326.7,-0.7,1.8,2469.893,13.33,0.043,88.7
2019-10-03T02:01:42,42.805,6.029,0.033,-0.006,-0.011,100.0,103.0,98.0,13.3,1505.3,326.4,-0.7,1.8,2469.873,13.33,0.033,100.3
2019-10-03T02:04:43,42.805,6.029,0.027,-0.011,-0.016,101.0,102.0,98.0,13.3,1505.3,324.3,-0.7,1.8,2469.894,13.33,0.029,112.2
2019-10-03T02:07:44,42.805,6.029,0.047,-0.023,0.015,99.0,104.0,98.0,13.4,1505.3,324.6,-0.7,1.8,2469.9,13.33,0.052,116.1
2019-10-03T02:10:45,42.805,6.029,0.026,-0.019,-0.011,101.0,103.0,98.0,13.4,1505.3,324.6,-0.8,1.8,2469.924,13.33,0.032,126.2
2019-10-03T02:13:46,42.805,6.029,0.042,0.002,-0.02,100.0,104.0,98.0,13.3,1505.3,328.4,-0.7,1.8,2469.885,13.33,0.042,87.3
2019-10-03T02:16:47,42.805,6.029,0.053,0.011,0.032,100.0,105.0,97.0,13.4,1505.3,325.8,-0.7,1.8,2469.857,13.33,0.054,78.3
2019-10-03T02:19:48,42.805,6.029,-0.018,-0.019,-0.046,99.0,103.0,98.0,13.3,1505.3,324.4,-0.7,1.9,2469.879,13.33,0.026,223.5
2019-10-03T02:22:49,42.805,6.029,0.023,-0.018,0.008,100.0,102.0,99.0,13.4,1505.3,325.6,-0.7,1.9,2469.856,13.33,0.029,128.0
2019-10-03T02:25:50,42.805,6.029,0.052,0.006,0.029,100.0,105.0,99.0,13.4,1505.3,327.3,-0.7,1.8,2469.891,13.33,0.052,83.4
2019-10-03T02:28:51,42.805,6.029,0.003,-0.006,-0.033,100.0,102.0,98.0,13.3,1505.3,325.9,-0.7,1.8,2469.872,13.33,0.006,153.4
2019-10-03T02:31:52,42.805,6.029,0.004,-0.03,-0.004,102.0,103.0,98.0,13.4,1505.3,327.1,-0.7,1.8,2469.889,13.33,0.03,172.4
2019-10-03T02:34:53,42.805,6.029,-0.024,0.0,-0.045,102.0,103.0,99.0,13.3,1505.3,326.0,-0.7,1.8,2469.845,13.33,0.024,270.0
2019-10-03T02:37:54,42.805,6.029,0.003,0.002,-0.021,102.0,103.0,99.0,13.4,1505.3,327.0,-0.7,1.8,2469.873,13.33,0.003,56.3
2019-10-03T02:40:55,42.805,6.029,0.036,-0.043,-0.032,100.0,102.0,99.0,13.4,1505.3,326.4,-0.7,1.8,2469.852,13.33,0.056,140.1
2019-10-03T02:43:56,42.805,6.029,0.003,0.0,0.014,104.0,104.0,99.0,13.4,1505.3,323.4,-0.7,1.8,2469.848,13.33,0.003,90.0
2019-10-03T02:46:57,42.805,6.029,0.037,0.002,-0.005,101.0,104.0,98.0,13.3,1505.3,323.5,-0.7,1.8,2469.898,13.33,0.037,86.9
2019-10-03T02:49:58,42.805,6.029,-0.01,-0.018,-0.035,100.0,104.0,98.0,13.4,1505.3,325.5,-0.7,1.8,2469.872,13.33,0.02,209.1
2019-10-03T02:52:59,42.805,6.029,-0.001,-0.012,-0.045,99.0,104.0,99.0,13.3,1505.3,327.1,-0.7,1.8,2469.849,13.33,0.012,184.8
2019-10-03T02:56:00,42.805,6.029,0.041,0.02,0.013,101.0,104.0,98.0,13.3,1505.3,324.4,-0.7,1.8,2469.841,13.33,0.045,64.0
2019-10-03T02:59:01,42.805,6.029,0.033,0.008,-0.021,100.0,103.0,97.0,13.3,1505.3,325.9,-0.7,1.8,2469.84,13.33,0.033,76.4
2019-10-03T03:02:02,42.805,6.029,-0.007,-0.013,-0.025,100.0,104.0,98.0,13.4,1505.3,327.4,-0.7,1.8,2469.894,13.33,0.014,208.3
2019-10-03T03:05:03,42.805,6.029,0.026,-0.002,0.006,100.0,105.0,98.0,13.3,1505.3,325.4,-0.7,1.8,2469.824,13.33,0.026,94.4
2019-10-03T03:08:04,42.805,6.029,0.058,0.0,0.036,100.0,106.0,98.0,13.4,1505.3,326.9,-0.7,1.8,2469.862,13.33,0.057,90.0
2019-10-03T03:11:05,42.805,6.029,0.038,0.009,0.036,100.0,105.0,99.0,13.3,1505.3,324.8,-0.7,1.8,2469.875,13.33,0.039,76.7
2019-10-03T03:14:06,42.805,6.029,0.036,0.015,-0.011,101.0,105.0,98.0,13.4,1505.3,327.3,-0.7,1.8,2469.855,13.33,0.039,67.4
2019-10-03T03:17:07,42.805,6.029,0.037,-0.021,0.018,101.0,104.0,98.0,13.4,1505.3,327.1,-0.7,1.8,2469.882,13.33,0.042,119.6
2019-10-03T03:20:08,42.805,6.029,0.012,-0.018,-0.034,101.0,103.0,99.0,13.4,1505.3,325.8,-0.7,1.8,2469.841,13.33,0.021,146.3
2019-10-03T03:23:09,42.805,6.029,0.019,-0.015,-0.041,100.0,104.0,98.0,13.3,1505.3,327.0,-0.7,1.8,2469.892,13.33,0.024,128.3
2019-10-03T03:26:10,42.805,6.029,0.076,0.012,0.011,99.0,104.0,99.0,13.3,1505.3,328.7,-0.7,1.8,2469.883,13.33,0.076,81.0
2019-10-03T03:29:11,42.805,6.029,0.0,-0.005,-0.051,102.0,107.0,98.0,13.4,1505.3,326.3,-0.7,1.8,2469.851,13.33,0.005,180.0
2019-10-03T03:32:12,42.805,6.029,0.03,0.021,-0.019,100.0,106.0,97.0,13.3,1505.3,324.6,-0.7,1.8,2469.825,13.33,0.036,55.0
2019-10-03T03:35:13,42.805,6.029,-0.001,-0.011,-0.085,100.0,104.0,98.0,13.4,1505.3,326.9,-0.7,1.8,2469.832,13.33,0.011,185.2
2019-10-03T03:38:14,42.805,6.029,0.045,-0.009,0.008,102.0,105.0,98.0,13.4,1505.3,326.7,-0.7,1.9,2469.878,13.33,0.045,101.3
2019-10-03T03:41:15,42.805,6.029,0.045,-0.014,-0.021,101.0,105.0,98.0,13.4,1505.3,326.5,-0.7,1.8,2469.91,13.33,0.047,107.3
2019-10-03T03:44:16,42.805,6.029,0.024,-0.009,-0.03,102.0,106.0,98.0,13.4,1505.3,325.6,-0.7,1.8,2469.873,13.33,0.025,110.6
2019-10-03T03:47:17,42.805,6.029,0.048,-0.015,-0.022,101.0,105.0,99.0,13.3,1505.3,326.5,-0.7,1.8,2469.86,13.33,0.05,107.4
2019-10-03T03:50:18,42.805,6.029,0.022,-0.016,-0.015,101.0,107.0,99.0,13.4,1505.3,325.9,-0.7,1.8,2469.86,13.33,0.027,126.0
2019-10-03T03:53:19,42.805,6.029,0.056,0.019,0.038,100.0,105.0,98.0,13.4,1505.3,326.9,-0.7,1.8,2469.844,13.33,0.059,71.3
2019-10-03T03:56:20,42.805,6.029,0.017,-0.008,-0.035,101.0,105.0,99.0,13.4,1505.3,326.4,-0.7,1.8,2469.856,13.33,0.018,115.2
2019-10-03T03:59:21,42.805,6.029,-0.007,-0.009,-0.036,100.0,105.0,98.0,13.4,1505.3,327.9,-0.7,1.8,2469.873,13.33,0.011,217.9
2019-10-03T04:02:22,42.805,6.029,0.003,0.0,-0.013,101.0,105.0,98.0,13.4,1505.3,326.0,-0.7,1.8,2469.903,13.33,0.003,90.0
2019-10-03T04:05:23,42.805,6.029,0.042,-0.012,-0.013,101.0,104.0,98.0,13.3,1505.3,325.8,-0.7,1.8,2469.858,13.33,0.043,105.9
2019-10-03T04:08:24,42.805,6.029,0.05,-0.024,0.001,98.0,104.0,99.0,13.3,1505.3,328.2,-0.6,1.8,2469.831,13.33,0.055,115.6
2019-10-03T04:11:25,42.805,6.029,0.069,0.014,0.055,100.0,104.0,98.0,13.4,1505.3,323.8,-0.7,1.8,2469.858,13.33,0.07,78.5
2019-10-03T04:14:26,42.805,6.029,-0.018,-0.017,-0.091,101.0,105.0,98.0,13.3,1505.3,325.9,-0.7,1.8,2469.882,13.33,0.024,226.6
2019-10-03T04:17:27,42.805,6.029,0.022,0.006,-0.019,99.0,105.0,98.0,13.4,1505.3,326.5,-0.7,1.8,2469.887,13.33,0.022,74.7
2019-10-03T04:20:28,42.805,6.029,0.084,-0.01,0.05,101.0,105.0,98.0,13.4,1505.3,326.1,-0.7,1.9,2469.839,13.33,0.084,96.8
2019-10-03T04:23:29,42.805,6.029,0.006,0.004,-0.05,101.0,103.0,99.0,13.4,1505.3,327.0,-0.7,1.8,2469.837,13.33,0.007,56.3
2019-10-03T04:26:30,42.805,6.029,-0.06,0.014,-0.047,99.0,103.0,98.0,13.3,1505.3,324.5,-0.7,1.8,2469.868,13.33,0.061,283.1
2019-10-03T04:29:31,42.805,6.029,-0.026,0.012,-0.082,100.0,105.0,98.0,13.4,1505.3,325.2,-0.7,1.9,2469.839,13.33,0.028,294.8
2019-10-03T04:32:32,42.805,6.029,-0.025,-0.018,-0.061,100.0,104.0,98.0,13.4,1505.3,325.8,-0.7,1.8,2469.81,13.33,0.03,234.2
2019-10-03T04:35:33,42.805,6.029,0.015,0.002,-0.028,100.0,104.0,98.0,13.4,1505.3,326.2,-0.7,1.8,2469.852,13.33,0.015,82.4
2019-10-03T04:38:34,42.805,6.029,0.044,0.013,0.008,102.0,103.0,98.0,13.4,1505.3,327.2,-0.8,1.8,2469.828,13.33,0.045,73.5
2019-10-03T04:41:35,42.805,6.029,0.016,0.004,-0.01,101.0,103.0,98.0,13.4,1505.3,326.0,-0.7,1.8,2469.805,13.33,0.016,76.0
2019-10-03T04:44:36,42.805,6.029,-0.037,-0.001,-0.047,102.0,105.0,99.0,13.4,1505.3,323.7,-0.7,1.8,2469.89,13.33,0.037,268.5
2019-10-03T04:47:37,42.805,6.029,0.032,0.022,0.025,100.0,105.0,99.0,13.4,1505.3,325.7,-0.7,1.8,2469.863,13.33,0.038,55.5
2019-10-03T04:50:38,42.805,6.029,-0.004,0.003,-0.026,99.0,103.0,98.0,13.3,1505.3,324.7,-0.8,1.8,2469.861,13.33,0.005,306.9
2019-10-03T04:53:39,42.805,6.029,0.03,0.009,-0.016,101.0,104.0,98.0,13.3,1505.3,323.4,-0.7,1.8,2469.854,13.33,0.031,73.3
2019-10-03T04:56:40,42.805,6.029,-0.054,-0.028,-0.104,101.0,105.0,98.0,13.4,1505.3,326.2,-0.7,1.8,2469.884,13.33,0.06,242.6
2019-10-03T04:59:41,42.805,6.029,0.002,-0.022,-0.065,100.0,104.0,98.0,13.4,1505.3,326.3,-0.7,1.8,2469.83,13.33,0.022,174.8
2019-10-03T05:02:42,42.805,6.029,-0.043,0.0,-0.088,102.0,104.0,98.0,13.4,1505.3,327.2,-0.7,1.8,2469.811,13.33,0.043,270.0
2019-10-03T05:05:43,42.805,6.029,0.001,-0.002,-0.049,100.0,103.0,97.0,13.4,1505.3,324.3,-0.7,1.8,2469.869,13.33,0.002,153.4
2019-10-03T05:08:44,42.805,6.029,-0.014,-0.006,-0.056,100.0,103.0,98.0,13.4,1505.3,325.3,-0.7,1.8,2469.896,13.33,0.015,246.8
2019-10-03T05:11:45,42.805,6.029,0.039,-0.008,-0.008,100.0,104.0,99.0,13.4,1505.3,327.0,-0.7,1.8,2469.852,13.33,0.039,101.6
2019-10-03T05:14:46,42.805,6.029,0.045,0.004,-0.02,100.0,103.0,99.0,13.4,1505.3,327.8,-0.7,1.8,2469.873,13.33,0.045,84.9
2019-10-03T05:17:47,42.805,6.029,0.008,0.002,-0.059,101.0,104.0,97.0,13.4,1505.3,323.3,-0.7,1.8,2469.867,13.33,0.008,76.0
2019-10-03T05:20:48,42.805,6.029,0.005,-0.003,-0.008,102.0,104.0,97.0,13.3,1505.3,324.9,-0.7,1.8,2469.845,13.33,0.005,121.0
2019-10-03T05:23:49,42.805,6.029,0.011,-0.004,0.008,100.0,104.0,97.0,13.4,1505.3,323.5,-0.7,1.8,2469.849,13.33,0.011,110.0
2019-10-03T05:26:50,42.805,6.029,-0.001,0.003,0.017,99.0,104.0,98.0,13.4,1505.3,324.6,-0.7,1.8,2469.877,13.33,0.003,341.6
2019-10-03T05:29:51,42.805,6.029,-0.013,0.004,-0.01,100.0,104.0,98.0,13.4,1505.3,327.8,-0.7,1.8,2469.844,13.33,0.013,287.1
2019-10-03T05:32:52,42.805,6.029,0.012,0.0,-0.01,101.0,104.0,97.0,13.4,1505.3,324.9,-0.7,1.8,2469.808,13.33,0.012,90.0
2019-10-03T05:35:53,42.805,6.029,0.007,0.007,-0.012,101.0,104.0,98.0,13.4,1505.3,324.8,-0.7,1.8,2469.846,13.33,0.009,45.0
2019-10-03T05:38:54,42.805,6.029,0.008,-0.014,-0.005,100.0,104.0,98.0,13.4,1505.3,323.0,-0.7,1.8,2469.875,13.33,0.016,150.3
2019-10-03T05:41:55,42.805,6.029,0.081,0.012,0.043,101.0,104.0,98.0,13.4,1505.3,328.4,-0.7,1.8,2469.89,13.33,0.081,81.6
